Satellite: RESURS
Catalog number: 25394
Epoch time: 09140.69012966
Element set: 0220
Inclination: 098.3411 deg
RA of node: 174.4343 deg
Eccentricity: 0.0001132
Arg of perigee: 337.1069 deg
Mean anomaly: 023.0059 deg
Mean motion: 14.24182840 rev/day
Decay rate: -5.0e-08 rev/day^2
Epoch rev: 56448
Checksum: 265
Satellite: FENGYUN1
Catalog number: 25730
Epoch time: 09140.92202509
Element set: 0793
Inclination: 098.7547 deg
RA of node: 111.9037 deg
Eccentricity: 0.0020916
Arg of perigee: 301.1996 deg
Mean anomaly: 058.7123 deg
Mean motion: 14.07947033 rev/day
Decay rate: -6.71e-06 rev/day^2
Epoch rev: 51648
Checksum: 301
Satellite: OKEAN-0
Catalog number: 25860
Epoch time: 09140.87435773
Element set: 681
Inclination: 097.7844 deg
RA of node: 123.1437 deg
Eccentricity: 0.0000568
Arg of perigee: 070.5475 deg
Mean anomaly: 289.5798 deg
Mean motion: 14.73573269 rev/day
Decay rate: 4.3e-07 rev/day^2
Epoch rev: 52912
Checksum: 333
Satellite: NOAA-16
Catalog number: 26536
Epoch time: 09140.80858046
Element set: 0408
Inclination: 099.1755 deg
RA of node: 143.8134 deg
Eccentricity: 0.0010339
Arg of perigee: 003.7917 deg
Mean anomaly: 356.3310 deg
Mean motion: 14.12517157 rev/day
Decay rate: -2.36e-06 rev/day^2
Epoch rev: 44643
Checksum: 295
Satellite: NOAA-17
Catalog number: 27453
Epoch time: 09140.73912093
Element set: 0419
Inclination: 098.4850 deg
RA of node: 200.7514 deg
Eccentricity: 0.0011492
Arg of perigee: 199.2569 deg
Mean anomaly: 160.8169 deg
Mean motion: 14.24063542 rev/day
Decay rate: -4.2e-07 rev/day^2
Epoch rev: 35884
Checksum: 310
Satellite: NOAA-18
Catalog number: 28654
Epoch time: 09140.68051831
Element set: 0906
Inclination: 098.9052 deg
RA of node: 084.1340 deg
Eccentricity: 0.0015312
Arg of perigee: 081.6195 deg
Mean anomaly: 278.6695 deg
Mean motion: 14.11259927 rev/day
Decay rate: 4.15e-06 rev/day^2
Epoch rev: 20607
Checksum: 309
Satellite: NOAA-19
Catalog number: 33591
Epoch time: 09141.71828647
Element set: 110
Inclination: 098.7450 deg
RA of node: 088.1670 deg
Eccentricity: 0.0013561
Arg of perigee: 322.1163 deg
Mean anomaly: 037.9523 deg
Mean motion: 14.10958212 rev/day
Decay rate: 5.1e-07 rev/day^2
Epoch rev: 1470
Checksum: 279
/EX
SB KEPS @ AMSAT $ORB09141.M
Orbital Elements 09141.MISC
HR AMSAT ORBITAL ELEMENTS FOR MANNED AND MISCELLANEOUS SATELLITES
FROM WA5QGD FORT WORTH,TX May 21, 2009
Send Subscribe/unsubscribe to KEPS at
http://www.amsat.org/mailman/listinfo/keps
BID: ORB09141.M
TO ALL RADIO AMATEURS BT
Satellite: HUBBLE
Catalog number: 20580
Epoch time: 09140.71505625
Element set: 0396
Inclination: 028.4708 deg
RA of node: 281.5909 deg
Eccentricity: 0.0003273
Arg of perigee: 356.0951 deg
Mean anomaly: 003.9607 deg
Mean motion: 15.00807701 rev/day
Decay rate: 3.525e-05 rev/day^2
Epoch rev: 84572
Checksum: 288
Satellite: ISS
Catalog number: 25544
Epoch time: 09140.86485477
Element set: 0889
Inclination: 051.6396 deg
RA of node: 087.0576 deg
Eccentricity: 0.0009718
Arg of perigee: 025.8019 deg
Mean anomaly: 014.7413 deg
Mean motion: 15.72927264 rev/day
Decay rate: 1.1891e-04 rev/day^2
Epoch rev: 60165
Checksum: 331
Satellite: CO-58
Catalog number: 28895
Epoch time: 09141.74285470
Element set: 307
Inclination: 098.0618 deg
RA of node: 033.0951 deg
Eccentricity: 0.0018938
Arg of perigee: 072.6282 deg
Mean anomaly: 287.6963 deg
Mean motion: 14.59767299 rev/day
Decay rate: -1.37e-06 rev/day^2
Epoch rev: 18987
Checksum: 371
Satellite: FALCON
Catalog number: 30776
Epoch time: 09141.66506197
Element set: 572
Inclination: 035.4341 deg
RA of node: 260.3245 deg
Eccentricity: 0.0001093
Arg of perigee: 002.2749 deg
Mean anomaly: 357.7972 deg
Mean motion: 15.03241986 rev/day
Decay rate: 3.41e-06 rev/day^2
Epoch rev: 12110
Checksum: 272
Satellite: MAST
Catalog number: 31126
Epoch time: 09140.70501020
Element set: 0600
Inclination: 097.9893 deg
RA of node: 196.7643 deg
Eccentricity: 0.0095050
Arg of perigee: 005.9280 deg
Mean anomaly: 354.3015 deg
Mean motion: 14.53495858 rev/day
Decay rate: 7.0e-07 rev/day^2
Epoch rev: 11104
Checksum: 269
Satellite: CAPE1
Catalog number: 31130
Epoch time: 09140.92341082
Element set: 0606
Inclination: 097.9918 deg
RA of node: 195.2186 deg
Eccentricity: 0.0102953
Arg of perigee: 010.6839 deg
Mean anomaly: 349.6453 deg
Mean motion: 14.52056383 rev/day
Decay rate: -2.25e-06 rev/day^2
Epoch rev: 11073
Checksum: 288
Satellite: COMPASS
Catalog number: 32787
Epoch time: 09141.22280540
Element set: 361
Inclination: 097.9412 deg
RA of node: 205.2708 deg
Eccentricity: 0.0016838
Arg of perigee: 118.1258 deg
Mean anomaly: 242.1654 deg
Mean motion: 14.81600216 rev/day
Decay rate: 3.43e-06 rev/day^2
Epoch rev: 5745
Checksum: 276
Satellite: AAUSAT2
Catalog number: 32788
Epoch time: 09141.73315891
Element set: 363
Inclination: 097.9435 deg
RA of node: 205.8324 deg
Eccentricity: 0.0016883
Arg of perigee: 118.6604 deg
Mean anomaly: 241.6311 deg
Mean motion: 14.81721695 rev/day
Decay rate: 1.02e-06 rev/day^2
Epoch rev: 5753
Checksum: 301
Satellite: DO-64
Catalog number: 32789
Epoch time: 09140.74153294
Element set: 0374
Inclination: 097.9487 deg
RA of node: 204.9939 deg
Eccentricity: 0.0016729
Arg of perigee: 118.2638 deg
Mean anomaly: 242.0266 deg
Mean motion: 14.81699430 rev/day
Decay rate: 5.24e-06 rev/day^2
Epoch rev: 05738
Checksum: 347
Satellite: CO-66
Catalog number: 32791
Epoch time: 09141.19500959
Element set: 354
Inclination: 097.9463 deg
RA of node: 205.2770 deg
Eccentricity: 0.0017044
Arg of perigee: 115.4086 deg
Mean anomaly: 244.8878 deg
Mean motion: 14.81430423 rev/day
Decay rate: 1.3e-07 rev/day^2
Epoch rev: 5741
Checksum: 304
Satellite: RS-30
Catalog number: 32953
Epoch time: 09141.54766238
Element set: 309
Inclination: 082.4995 deg
RA of node: 273.1758 deg
Eccentricity: 0.0018303
Arg of perigee: 234.8288 deg
Mean anomaly: 125.1080 deg
Mean motion: 12.43001056 rev/day
Decay rate: 1.0e-07 rev/day^2
Epoch rev: 4508
Checksum: 281
Satellite: OBJECTA
Catalog number: 35001
Epoch time: 09141.79712030
Element set: 5
Inclination: 040.4561 deg
RA of node: 038.4590 deg
Eccentricity: 0.0026046
Arg of perigee: 323.4092 deg
Mean anomaly: 036.4948 deg
Mean motion: 15.38727394 rev/day
Decay rate: 1.243e-05 rev/day^2
Epoch rev: 28
Checksum: 259
Satellite: OBJECTB
Catalog number: 35002
Epoch time: 09141.79620806
Element set: 8
Inclination: 040.4696 deg
RA of node: 038.4430 deg
Eccentricity: 0.0028410
Arg of perigee: 327.4292 deg
Mean anomaly: 032.4641 deg
Mean motion: 15.39512352 rev/day
Decay rate: 3.836e-05 rev/day^2
Epoch rev: 27
Checksum: 259
Satellite: OBJECTC
Catalog number: 35003
Epoch time: 09141.79589500
Element set: 5
Inclination: 040.4708 deg
RA of node: 038.4423 deg
Eccentricity: 0.0029441
Arg of perigee: 329.4663 deg
Mean anomaly: 030.4439 deg
Mean motion: 15.39779563 rev/day
Decay rate: 1.235e-05 rev/day^2
Epoch rev: 28
Checksum: 281
Satellite: OBJECTE
Catalog number: 35005
Epoch time: 09141.80158962
Element set: 1
Inclination: 040.4690 deg
RA of node: 038.4087 deg
Eccentricity: 0.0024131
Arg of perigee: 329.7663 deg
Mean anomaly: 061.0596 deg
Mean motion: 15.39658797 rev/day
Decay rate: -2.46e-06 rev/day^2
Epoch rev: 27
Checksum: 286
/EX
More information about the Keps
mailing list